#timestamp,LO_Frequency,Hit 
1502773215.4,286047003.5,N
1502773235.3,286047003.0,N
1502773255.1,286047006.0,N
1502773275.8,286047005.9,N
1502773295.7,286047001.7,N
1502773315.5,286047002.4,N
1502773335.3,286047000.2,N
1502773355.2,286046997.3,N
1502773375.9,286046999.1,N
1502773395.7,286046998.1,N
1502773415.6,286046996.8,N
1502773435.4,286046995.0,N
1502773455.2,286046998.4,N
1502773475.0,286046994.9,N
1502773476.0,286046994.9,N
1502773495.8,286046995.2,N
1502773515.6,286047001.1,N
1502773535.4,286047000.3,N
1502773555.3,286047001.5,N
1502773575.1,286047001.7,N
1502773595.8,286047002.6,N
1502773615.7,286047007.6,N
1502773635.5,286047006.9,N
1502773655.3,286047001.8,N
1502773675.2,286047004.1,N
1502773695.9,286047003.3,N
1502773715.7,286047003.9,N
1502773735.6,286047001.5,N
1502773755.4,286047002.1,N
1502773775.2,286047001.6,N
1502773795.1,286047002.3,N
1502773796.0,286047002.3,N
1502773815.8,286047002.4,N
1502773835.6,286047001.7,N
1502773855.5,286047005.8,N
1502773875.3,286047006.3,N
1502773895.1,286047006.6,N
1502773915.8,286047007.2,N
1502773935.7,286047004.6,N
1502773955.5,286047006.1,N
1502773975.3,286047008.9,N
1502773995.2,286047008.7,N
1502774015.7,286047006.1,N
1502774035.6,286047007.4,N
1502774055.4,286047002.9,N
1502774075.2,286047005.8,N
1502774095.1,286047004.4,N
1502774096.0,286047004.4,N
1502774115.8,286047007.4,P
1502774135.7,286047005.6,P
1502774155.5,286047002.1,N
1502774175.3,286046999.1,N
1502774195.1,286046997.2,N
1502774215.9,286046998.0,N
1502774235.7,286046993.9,N
1502774255.5,286046994.6,N
1502774275.4,286046994.1,N
1502774295.2,286046996.3,N
1502774315.0,286046993.5,N
1502774315.9,286046993.5,N
1502774335.8,286046994.2,N
1502774355.6,286046992.8,N
1502774375.4,286046989.1,N
1502774395.3,286046987.6,N
1502774415.1,286046984.1,N
1502774416.0,286046984.1,N
1502774435.8,286046986.3,N
1502774455.7,286046985.5,N
1502774475.5,286046983.9,N
1502774495.3,286046983.3,N
1502774515.1,286046981.7,N
1502774535.9,286046981.1,N
1502774555.7,286046983.5,N
1502774575.5,286046982.4,N
1502774595.4,286046978.9,N
1502774615.2,286046977.4,N
1502774635.0,286046980.1,N
1502774635.9,286046980.1,N
1502774655.8,286046980.7,N
1502774675.6,286046980.8,N
1502774695.4,286046982.6,N
1502774715.3,286046982.3,N
1502774735.1,286046983.0,N
1502774736.0,286046983.0,N
1502774755.8,286046981.5,P
1502774775.7,286046993.3,P
1502774795.5,286046991.8,N
1502774815.3,286046993.4,N
1502774835.2,286046994.8,N
1502774855.9,286046994.5,N
1502774875.7,286046997.5,N
1502774895.6,286046997.4,N
1502774915.4,286046994.9,N
1502774935.2,286047000.6,N
1502774955.0,286047000.0,N
1502774956.0,286047000.0,N
1502774975.8,286047003.3,N
1502774995.6,286047001.5,N
1502775015.4,286047003.2,N
1502775035.3,286047004.5,N
1502775055.1,286047001.9,N
1502775075.8,286047002.8,N
1502775095.7,286047002.1,N
1502775115.5,286047000.4,N
1502775135.3,286047000.3,N
1502775155.2,286047001.4,N
1502775175.9,286047002.0,N
1502775195.7,286047003.8,N
1502775215.6,286047003.1,N
1502775235.4,286047003.0,N
1502775255.2,286047005.2,N
1502775275.0,286047003.6,N
1502775276.0,286047003.6,N
1502775295.8,286047003.6,N
1502775315.6,286047003.5,N
1502775335.4,286047003.0,N
1502775355.3,286047004.2,N
1502775375.1,286047004.4,N
1502775395.8,286047002.5,N
1502775415.7,286047001.3,N
1502775435.5,286046999.7,N
1502775455.3,286047002.8,N
1502775475.2,286047002.3,N
1502775495.0,286047000.4,N
1502775495.9,286047000.4,N
1502775515.7,286047003.5,N
1502775535.6,286047001.6,N
1502775555.4,286047004.4,P
1502775575.3,286047000.0,N
1502775595.1,286047002.9,N
1502775596.0,286047002.9,N
1502775615.8,286047005.9,P
1502775635.7,286047000.5,N
1502775655.5,286046998.8,N
1502775675.3,286046998.1,N
1502775695.2,286046998.2,N
1502775715.9,286047001.8,N
1502775735.7,286047002.7,N
1502775755.6,286046999.3,N
1502775775.4,286047001.0,N
1502775795.2,286047002.6,N
1502775815.0,286047001.7,N
1502775815.9,286047001.7,N
1502775835.8,286047002.1,N
1502775855.1,286047001.3,N
1502775875.8,286047003.1,N
1502775895.7,286047001.7,N
1502775915.5,286047002.9,N
1502775935.4,286047006.5,P
1502775955.2,286047004.7,N
1502775975.0,286047006.0,N
1502775975.9,286047006.0,P
1502775995.8,286047000.1,N
1502776015.6,286046999.8,N
1502776035.4,286046997.8,N
1502776055.3,286046996.7,N
1502776075.1,286046998.0,N
1502776076.0,286046998.0,N
1502776095.8,286046995.6,N
1502776115.7,286046994.5,N
1502776135.5,286046994.7,N
1502776155.3,286046994.5,N
1502776175.1,286046996.0,N
1502776195.9,286046996.7,N
1502776215.7,286046996.5,N
1502776235.5,286046996.8,N
1502776255.4,286046994.9,N
1502776275.2,286046994.4,N
1502776295.0,286046994.1,N
1502776295.9,286046994.1,N
1502776315.8,286046990.5,N
1502776335.6,286046992.3,N
1502776355.4,286046992.7,N
1502776375.3,286046990.1,N
1502776395.1,286046993.8,N
1502776396.0,286046993.8,N
1502776415.8,286046992.5,N
1502776435.7,286046993.2,N
1502776455.5,286046993.6,N
1502776475.3,286046997.2,N
1502776495.2,286046995.1,N
1502776515.9,286046992.6,N
1502776535.7,286046992.0,P
1502776555.6,286046996.7,N
1502776575.4,286046996.5,N
1502776595.2,286046995.4,N
1502776615.1,286046996.9,N
1502776616.0,286046996.9,N
1502776635.8,286046997.6,N
1502776655.6,286046995.3,N
1502776675.5,286046998.0,N
1502776695.7,286046997.8,N
1502776715.5,286046997.8,N
1502776735.3,286046993.7,P
1502776755.2,286046999.3,N
1502776775.9,286046996.9,N
1502776795.7,286046994.9,N
